Location: ??????????
(44.2167°N, 135.5333°E)
Time: 14:25:24
(UTC+00:00)

Aureole 3 Rocket - Pass Details

Date: 15 June 2025
Orbit: 397 x 1696 km, 82.5° (Epoch: 15 July)

Event Time Altitude Azimuth Distance (km) Brightness Sun altitude
Rises 13:48:07 0° 356° (N) 2,355 7.5 -20.6°
Reaches altitude 10° 13:50:01 10° 2° (N) 1,540 6.1 -20.7°
Maximum altitude 13:53:12 52° 80° (E) 607 2.9 -20.8°
Enters shadow 13:53:17 52° 86° (E) 610 2.9 -20.8°
